ECMWFNIL_700_spd_000.txt.gz
Wind_Speed
22 22 23 23 24 24 23 22 22 22 21 21 21 21 21 21 21 19 19 20 21 23 25 26 27 27 27 27 27 28 29 29 30 30 31 33 35 38 40 39 38 39
22 23 24 24 24 25 24 23 23 23 22 22 21 22 22 22 22 22 21 21 21 22 23 24 26 28 29 29 29 29 29 30 30 30 31 32 33 35 38 40 40 40
22 23 24 24 24 25 24 23 23 23 23 23 22 23 23 23 23 23 23 23 23 24 24 24 24 26 28 30 31 31 30 30 30 31 32 32 32 32 34 37 39 41
22 23 24 24 24 24 23 23 23 23 23 23 23 24 24 25 25 24 25 25 25 27 27 27 26 27 28 29 31 33 33 32 31 31 32 33 32 32 33 34 36 38
22 23 23 24 24 24 24 24 24 23 24 24 24 25 26 27 27 27 27 27 27 28 29 30 29 29 30 30 30 32 33 34 34 33 33 33 33 33 33 33 34 36
22 23 24 24 24 24 24 25 25 25 26 26 27 27 28 29 29 29 29 29 28 29 29 31 31 31 31 32 32 31 32 33 34 35 35 34 34 34 34 35 34 35
23 24 24 25 25 25 25 26 26 27 27 28 29 29 30 30 30 30 30 30 30 29 29 30 31 32 32 33 33 32 32 33 34 35 36 36 36 34 35 36 36 35
26 25 25 25 25 25 26 26 27 28 29 29 30 30 31 31 31 31 31 31 31 30 30 30 31 32 32 33 34 33 33 33 33 34 36 37 37 36 36 36 37 36
28 28 27 26 25 25 26 26 27 28 29 30 30 31 32 32 32 32 32 32 32 32 31 31 31 31 33 34 34 34 34 33 33 34 35 37 38 38 37 37 38 38
29 29 28 27 26 26 26 27 28 29 30 30 31 31 32 33 33 33 33 33 33 33 32 32 32 32 33 34 34 35 35 34 34 33 34 35 37 38 39 39 40 40
29 29 29 27 27 27 28 29 29 30 31 31 32 32 33 34 34 35 35 35 35 34 33 33 34 33 33 34 35 35 35 35 35 34 34 34 35 37 39 41 42 43
29 29 29 28 28 28 29 30 31 31 32 32 33 34 35 35 36 37 37 37 36 36 35 35 35 35 34 35 36 37 37 36 36 36 35 35 34 35 37 40 42 44
29 29 29 29 29 29 30 30 31 32 33 33 34 35 36 37 38 39 39 39 38 38 38 37 37 36 36 36 37 38 38 38 38 38 38 37 36 35 36 38 41 43
30 30 30 29 29 29 30 31 32 33 34 34 35 36 38 39 40 41 42 42 41 40 40 39 39 38 38 38 39 39 40 40 40 40 40 39 39 37 36 37 39 41
31 31 31 30 29 29 30 31 32 33 34 35 36 38 39 41 42 43 43 43 42 42 41 41 41 40 40 40 41 41 41 42 42 42 41 41 41 41 39 38 38 39
31 31 31 30 29 30 30 31 32 33 34 35 37 39 41 42 44 44 44 43 43 43 43 43 43 42 41 41 41 42 42 42 42 43 43 43 43 44 43 41 39 39
30 30 29 29 29 30 31 32 32 33 35 37 39 41 42 43 44 45 45 44 43 43 43 43 43 42 41 40 39 40 41 42 43 43 43 44 45 45 46 45 43 41
30 29 28 28 29 30 31 32 32 34 36 38 41 43 44 44 44 44 45 44 44 43 42 41 41 39 38 38 38 39 41 42 43 43 44 44 45 46 46 47 46 45
29 28 28 29 29 30 30 31 33 34 37 39 41 44 44 44 43 44 44 43 42 42 40 39 38 37 36 37 38 39 40 42 43 44 44 45 45 46 47 48 48 48
27 27 28 28 29 29 30 31 33 34 37 40 42 44 44 43 43 42 42 41 40 40 39 38 37 36 36 37 39 40 41 42 44 45 45 45 46 47 48 49 50 50
26 27 27 27 28 29 30 31 33 35 38 41 43 44 43 43 42 41 40 39 39 38 38 37 37 37 37 39 40 40 41 43 45 46 47 48 48 49 50 51 52 52
27 25 25 26 28 29 30 32 34 37 39 42 44 45 43 42 40 39 39 39 38 39 39 39 39 39 40 41 42 42 43 44 46 49 50 51 52 52 53 55 55 55
25 22 23 26 27 29 32 34 37 39 40 42 45 45 43 41 39 39 39 39 39 40 41 41 42 42 43 44 45 46 47 49 50 53 54 55 56 56 57 58 58 58
22 20 22 26 28 31 34 36 39 40 41 43 44 43 41 39 39 39 39 40 41 42 43 44 45 46 47 48 49 50 52 53 55 57 58 59 60 60 60 61 61 61
22 22 24 26 29 32 35 37 40 41 42 43 42 40 39 39 39 39 40 41 42 43 45 46 48 49 50 52 53 54 56 57 58 60 61 61 61 61 61 61 61 62
21 22 25 27 30 33 36 38 39 39 40 41 39 38 38 39 39 40 40 41 43 44 46 48 50 51 53 54 55 57 58 59 60 60 59 58 57 56 56 56 57 57

ECMWFNIL_700_spd_006.txt.gz
Wind_Speed
17 18 17 17 16 15 14 14 14 14 14 14 13 12 12 12 13 14 15 16 17 17 18 17 17 17 17 17 16 16 16 17 17 18 18 18 18 19 20 21 23 25
16 17 16 16 15 15 15 15 14 15 15 15 14 13 13 13 13 13 13 14 15 16 18 18 19 19 19 19 18 19 19 19 19 19 19 19 19 20 20 20 21 23
15 15 15 15 15 15 15 15 16 16 16 16 16 15 14 14 14 14 14 14 14 15 17 18 19 20 20 20 20 21 21 22 22 22 21 21 21 21 22 22 22 23
14 13 13 13 14 14 15 15 16 17 17 17 17 17 17 16 16 16 16 16 16 16 17 18 19 20 20 21 21 21 22 23 24 24 23 23 24 24 24 24 24 24
14 13 12 12 13 14 15 15 16 17 18 18 18 18 18 18 18 19 19 19 19 19 19 19 20 20 21 21 21 22 22 23 24 25 24 24 25 25 26 26 27 26
16 15 13 13 14 15 15 16 17 18 18 18 18 18 18 19 19 20 21 21 21 21 21 21 21 21 21 21 22 22 23 25 26 26 26 26 26 26 26 28 28 28
18 17 15 14 15 16 16 17 18 18 18 18 18 18 19 19 20 21 21 22 22 22 22 23 23 23 23 23 23 24 24 26 27 28 29 29 29 29 29 29 30 29
19 19 17 17 17 17 17 18 19 19 19 18 18 19 19 20 21 21 22 22 23 23 24 24 24 24 24 24 24 25 26 26 28 29 30 31 32 32 32 33 32 31
22 21 20 19 18 19 19 19 20 20 20 19 19 19 20 21 22 22 23 23 24 24 25 25 25 25 25 25 25 25 26 27 28 29 30 32 33 34 35 36 36 35
24 23 22 21 20 20 20 21 21 21 21 20 20 21 21 22 23 23 24 24 25 25 25 25 25 26 26 26 27 27 28 28 29 30 31 32 33 35 36 37 38 38
28 26 23 21 21 22 22 22 23 22 22 22 21 22 22 23 24 24 25 25 25 26 26 26 26 27 28 29 29 30 30 30 31 31 32 33 33 34 36 38 39 39
30 29 25 22 22 23 23 24 24 23 23 23 23 23 24 24 25 25 26 26 26 26 26 27 28 29 30 31 31 32 32 32 33 33 34 34 35 35 36 38 39 40
31 30 26 23 23 24 25 25 25 25 25 24 24 24 25 26 26 27 27 27 27 27 28 29 30 31 32 32 33 34 35 36 36 37 37 36 36 37 37 38 39 40
32 30 26 24 25 26 26 27 27 27 27 27 26 26 27 27 27 27 27 27 28 28 29 30 31 32 33 34 35 37 38 39 40 40 40 39 38 38 38 39 40 41
34 31 29 27 28 28 27 28 28 28 29 29 28 28 29 29 29 28 28 28 29 29 30 31 32 34 35 36 38 40 41 42 42 41 41 41 40 40 39 39 40 41
36 31 32 31 29 29 28 28 29 30 31 31 30 30 30 30 30 29 30 30 30 31 32 33 34 36 37 38 40 41 42 42 42 42 42 42 42 41 40 40 40 41
38 33 35 33 30 28 27 28 30 31 32 32 32 32 32 31 30 30 31 32 33 33 34 35 37 38 39 40 41 41 42 43 44 44 44 44 43 43 42 41 41 41
37 35 37 33 27 26 28 30 32 32 33 33 33 33 32 31 31 32 34 35 35 35 36 37 39 40 41 41 41 42 43 44 44 45 45 45 45 45 44 43 43 42
35 34 34 29 23 26 29 31 33 33 33 33 33 33 32 32 33 34 35 36 37 37 38 40 41 42 42 42 43 43 44 44 45 46 46 46 46 45 45 44 44 44
36 35 32 26 23 27 30 32 33 33 33 34 33 33 33 34 35 35 36 37 38 39 41 42 42 42 42 43 44 44 44 45 46 47 47 47 46 46 45 45 45 45
39 39 33 25 23 27 30 32 33 33 33 34 34 34 34 34 35 36 36 38 39 41 42 42 42 42 42 43 44 44 45 46 47 48 48 47 47 46 45 45 45 45
42 38 28 21 23 27 30 31 32 33 34 34 33 33 34 34 35 36 37 38 40 41 42 42 42 42 43 43 44 44 46 47 48 49 48 48 47 46 45 45 45 45
36 28 20 19 24 27 29 30 32 32 32 31 31 31 33 34 36 36 37 38 39 40 41 42 42 42 42 43 43 44 46 47 49 49 49 49 48 47 46 46 46 46
30 24 19 21 25 27 28 28 28 28 28 28 29 31 33 35 35 35 36 37 39 40 41 42 42 42 41 42 42 43 45 47 48 49 50 50 49 48 48 47 48 48
32 25 22 23 25 26 26 25 25 26 26 27 29 31 32 33 34 35 36 37 39 40 40 41 41 40 40 41 42 43 44 46 48 49 51 51 50 50 50 50 50 50
30 24 22 23 25 26 26 26 26 25 25 26 28 30 32 33 34 35 35 36 37 37 37 37 38 39 40 40 42 43 45 46 48 50 51 52 52 52 52 53 53 53

ECMWFNIL_700_spd_009.txt.gz
Wind_Speed
13 13 12 12 13 14 13 13 12 12 12 11 11 11 11 12 13 14 15 15 15 16 16 16 17 17 17 17 17 17 17 17 18 18 19 19 19 19 20 20 21 21
13 13 12 12 13 14 13 12 11 11 11 10 10 10 10 11 12 13 14 15 16 16 17 18 18 18 18 19 19 19 19 19 20 20 20 21 21 21 22 22 22 22
13 13 12 12 13 13 12 11 11 11 11 11 11 10 10 11 12 12 13 14 15 15 16 16 17 18 18 19 20 21 21 22 22 22 22 22 23 23 24 24 24 24
13 14 13 13 13 13 13 12 12 12 13 12 12 12 12 12 12 13 14 14 14 14 14 15 15 16 17 18 19 20 21 22 23 23 24 24 24 24 25 25 26 26
14 15 14 14 14 14 14 13 13 14 14 14 14 14 14 14 14 14 15 15 15 15 14 15 15 15 16 17 18 19 20 21 21 22 23 24 25 25 25 25 26 27
15 16 16 15 15 16 16 14 14 15 16 16 17 16 16 16 16 16 16 16 16 16 15 15 15 15 16 17 17 18 19 20 20 21 22 23 24 25 25 25 25 26
16 16 17 17 17 17 17 16 16 17 18 19 19 19 19 19 19 18 18 17 17 17 17 17 16 16 16 16 17 18 18 18 19 20 21 22 23 25 26 27 27 26
18 18 18 19 19 18 17 17 18 18 19 21 22 22 22 21 21 21 20 20 20 20 19 19 18 18 17 18 18 18 18 19 19 19 20 21 23 24 26 28 29 29
21 21 21 21 21 20 18 17 17 18 20 21 23 24 24 23 23 23 23 23 23 23 22 22 21 20 20 20 20 20 20 20 21 21 22 23 24 25 27 28 29 30
26 24 24 24 23 22 20 19 19 19 20 22 23 24 25 26 25 25 25 25 25 25 25 24 24 23 22 22 22 21 22 22 23 23 24 25 26 27 28 29 30 31
30 29 26 26 25 24 22 22 22 22 23 23 23 24 26 27 27 26 27 27 27 27 27 27 26 26 25 24 24 24 24 24 25 26 26 27 28 29 29 31 31 32
33 33 30 28 28 27 26 26 26 26 26 26 25 25 26 27 28 28 29 29 29 29 29 29 29 28 28 27 26 26 26 26 27 28 28 29 29 30 31 33 33 34
31 34 34 32 30 30 30 30 30 29 29 29 28 27 28 28 29 30 31 31 30 30 30 30 31 30 30 29 29 29 29 29 29 29 30 31 31 32 33 35 35 36
27 33 39 38 35 33 33 34 33 32 32 32 31 30 29 30 31 32 33 33 33 32 32 32 32 32 32 32 31 31 31 31 31 31 32 33 33 34 35 36 37 37
28 32 38 41 40 37 37 38 36 35 35 34 33 32 32 32 33 34 35 35 35 34 34 34 34 34 34 34 33 33 33 33 34 34 35 36 36 37 36 37 38 38
28 31 34 39 44 43 42 42 41 40 38 36 35 34 34 34 34 35 36 36 36 36 36 36 36 36 35 35 34 35 35 36 37 37 38 39 39 38 38 39 40 40
28 30 32 38 46 47 47 47 45 44 43 40 38 37 35 35 35 35 37 37 38 38 38 38 37 37 36 36 36 37 38 39 39 40 40 41 40 40 41 41 42 42
31 31 32 39 47 49 50 51 48 46 45 41 40 39 36 35 35 36 37 38 38 39 39 39 38 37 37 37 38 39 40 40 41 41 41 42 42 43 43 43 43 44
35 35 35 40 47 48 49 50 45 42 43 42 41 39 36 36 36 35 36 38 39 40 40 39 39 39 39 39 40 40 41 41 42 42 43 43 44 44 44 45 45 45
36 37 37 40 44 44 44 46 43 41 43 43 40 37 35 35 35 35 37 39 40 40 40 39 39 40 40 40 41 42 42 43 43 44 44 45 45 45 46 46 46 46
34 36 38 39 40 41 42 44 44 43 43 41 37 34 33 33 34 36 38 39 40 40 40 39 39 40 41 42 42 43 44 44 44 45 45 46 46 47 47 48 48 48
35 36 38 40 42 42 41 43 45 44 42 38 33 31 32 33 35 37 38 39 40 40 39 38 39 40 42 43 43 44 44 45 45 46 47 47 48 48 48 49 49 49
40 39 39 40 43 43 41 43 44 42 37 32 29 30 32 33 35 37 37 38 39 38 38 38 39 41 42 43 43 44 44 45 46 47 48 49 49 49 49 50 50 50
42 41 39 38 42 44 41 39 38 34 29 27 28 30 32 33 34 35 36 37 37 37 37 38 40 41 41 42 43 44 45 46 48 48 49 50 50 50 50 50 51 51
39 38 37 36 39 41 37 33 30 29 28 27 29 30 31 32 33 34 35 36 36 35 36 37 38 39 40 41 42 43 44 46 48 49 50 50 51 51 51 51 52 51
36 36 35 34 34 34 33 32 31 30 29 28 28 29 30 31 33 34 34 35 35 34 35 36 37 38 39 40 41 42 43 45 47 49 50 51 52 52 53 53 53 53

ECMWFNIL_700_spd_015.txt.gz
Wind_Speed
7 6 5 5 4 3 3 4 6 7 9 10 12 12 11 11 12 11 11 10 10 10 9 9 10 10 11 12 13 13 14 14 15 15 15 15 16 16 17 16 17 17
9 7 7 6 6 5 4 4 5 6 8 9 10 11 10 11 11 11 12 11 11 11 10 10 10 11 12 12 13 13 14 14 15 15 16 16 16 17 17 17 18 18
12 10 8 8 8 8 8 7 6 6 7 8 9 9 9 10 11 11 12 12 12 12 12 11 12 12 13 13 14 14 14 15 15 15 15 16 16 16 16 16 17 17
15 12 10 9 10 11 11 10 9 8 8 9 8 8 8 9 10 11 12 13 13 13 13 13 13 13 13 14 14 15 15 16 16 16 16 16 16 16 16 16 16 16
17 16 14 13 12 13 13 13 12 11 12 12 11 9 9 10 10 11 12 12 13 14 13 14 14 15 15 15 15 15 15 16 16 17 17 17 17 17 16 16 16 16
18 18 17 16 15 15 15 15 14 14 14 15 15 13 12 12 12 13 13 13 13 13 14 14 14 15 15 16 16 16 16 16 16 17 17 18 18 18 17 17 16 16
21 20 20 19 18 17 16 16 17 17 16 17 18 17 16 15 15 15 15 15 15 14 14 15 15 15 16 16 17 17 17 17 17 17 17 18 18 18 18 18 17 17
24 24 22 21 21 20 19 18 19 19 19 20 20 20 20 19 19 19 19 18 18 17 17 17 16 16 16 17 17 17 18 18 19 19 18 18 18 19 18 18 18 19
26 26 25 23 22 22 21 21 21 21 22 22 23 23 23 23 23 23 23 22 21 20 20 20 20 19 19 19 18 18 18 18 19 20 20 20 20 20 20 20 20 20
27 27 27 26 24 24 23 22 23 23 24 25 25 26 26 27 27 27 27 27 25 24 23 24 24 23 22 22 21 21 20 19 19 19 20 21 22 22 22 22 22 23
29 29 29 27 25 25 25 24 25 26 26 27 27 29 30 30 30 30 30 30 29 27 27 27 28 27 26 26 26 25 24 22 21 20 20 21 22 23 24 24 25 25
28 29 30 27 25 25 25 26 27 28 28 29 30 31 33 34 34 34 34 33 32 31 30 31 31 32 31 30 29 29 28 27 25 24 23 22 22 23 25 26 27 27
28 29 30 30 28 27 27 27 28 29 30 30 32 34 36 37 38 37 37 37 36 35 34 34 35 35 34 33 32 33 33 32 30 28 27 26 25 25 26 26 28 29
30 31 32 32 32 32 32 31 31 31 31 32 35 37 38 40 40 40 40 40 39 39 38 38 38 37 37 37 36 36 36 36 35 33 32 31 30 29 28 28 28 29
31 31 32 33 34 34 35 35 34 34 34 36 37 38 39 42 44 42 41 40 40 41 42 42 41 40 39 39 39 39 39 39 39 37 36 36 35 34 32 31 31 31
32 33 34 35 35 35 36 37 38 38 38 39 40 39 39 43 45 44 43 41 40 41 43 44 43 41 41 41 42 42 41 42 42 41 40 40 39 38 36 35 34 33
34 34 35 36 37 37 38 39 40 41 41 42 42 41 41 42 43 43 42 41 40 41 42 44 44 43 43 43 44 45 44 44 44 44 44 44 42 41 40 38 37 36
35 36 36 36 37 38 39 40 41 42 43 44 44 43 42 42 42 41 39 38 39 41 43 45 45 45 44 45 46 47 47 46 46 46 46 46 45 43 42 42 40 39
33 35 36 37 37 37 39 41 42 42 43 44 44 43 43 42 41 41 40 38 38 40 44 46 46 45 45 46 47 48 48 48 47 47 48 48 47 45 44 44 43 42
32 33 34 35 36 37 38 39 40 41 42 43 44 43 42 41 39 39 40 39 36 37 42 46 47 45 45 47 48 49 50 49 48 48 50 50 49 47 47 46 45 44
31 32 33 34 35 36 37 38 39 40 41 41 41 41 39 37 36 36 37 37 36 35 39 44 46 45 46 48 49 49 50 50 50 51 52 51 49 48 48 48 47 46
31 32 33 35 35 36 37 38 38 39 40 41 41 39 37 35 34 34 36 37 37 36 38 43 45 46 47 48 49 50 50 51 51 53 53 50 49 48 48 48 47 47
31 32 33 34 36 37 38 38 39 39 40 41 41 40 37 35 34 35 36 36 36 37 39 42 45 46 46 47 48 48 49 50 51 53 52 49 47 47 48 48 48 47
33 34 34 34 35 36 37 38 39 39 39 39 39 38 38 36 35 36 36 35 35 37 40 43 45 45 45 46 47 47 48 48 49 50 49 47 47 47 48 48 48 48
35 35 36 36 36 36 36 36 36 38 38 37 36 35 35 35 36 39 39 38 38 39 40 42 44 44 44 44 45 45 45 46 47 47 46 46 47 48 48 49 49 49
37 37 37 38 38 37 36 34 33 34 35 35 34 33 31 31 35 40 42 39 38 38 40 41 42 41 40 40 40 42 43 45 45 45 46 46 47 48 49 49 49 49

ECMWFNIL_700_spd_021.txt.gz
Wind_Speed
11 10 9 7 5 4 4 5 5 4 3 2 3 4 6 7 8 8 7 6 5 4 3 2 2 1 0 1 2 3 4 4 5 6 7 8 9 10 11 11 11 12
12 11 11 9 8 7 6 7 7 6 6 5 3 2 3 4 6 7 8 8 7 6 6 5 4 3 2 2 1 0 0 1 2 3 4 5 7 8 9 10 11 12
14 13 13 12 11 10 9 9 8 8 8 8 7 4 2 1 2 4 5 6 6 7 7 7 6 6 5 4 4 3 2 2 2 2 3 3 4 5 5 7 8 9
16 16 15 14 14 14 13 12 11 10 10 9 9 8 6 5 3 2 2 2 3 4 5 6 6 6 7 7 7 7 6 6 5 5 5 5 5 5 5 5 6 7
19 19 18 17 17 17 17 16 15 13 13 12 11 11 10 8 8 7 5 4 3 3 4 5 5 5 6 6 7 8 8 8 8 9 9 9 9 8 8 8 7 7
23 22 21 20 20 21 20 19 18 17 16 16 15 14 13 12 11 11 10 9 8 7 7 7 7 7 7 8 8 8 9 9 9 10 11 11 12 12 12 11 11 11
26 26 24 23 24 24 23 22 21 20 19 18 17 17 17 15 14 14 13 13 12 12 11 10 10 10 11 11 11 11 11 11 11 12 12 12 13 13 13 13 13 13
30 29 27 27 27 26 25 24 24 22 21 20 20 20 20 19 18 18 17 16 16 15 15 14 13 13 14 14 15 14 13 14 14 14 14 14 14 14 14 14 14 14
30 30 30 31 31 30 28 27 27 26 25 24 23 22 22 22 22 21 21 20 20 19 18 17 17 16 16 17 18 17 17 16 16 17 17 17 17 17 17 16 16 16
26 29 31 33 34 34 32 30 29 29 28 27 26 26 25 24 24 24 25 24 23 22 21 21 20 20 19 19 20 20 19 19 19 19 20 20 21 21 21 20 19 19
26 27 29 32 33 34 35 33 32 32 31 30 30 29 27 26 25 25 26 27 26 25 25 24 23 23 23 22 22 22 22 22 22 22 23 23 24 25 25 24 23 23
33 30 28 30 32 33 35 33 30 32 33 31 31 30 28 28 29 28 27 29 29 28 28 28 27 26 25 25 25 24 23 24 26 26 27 27 27 28 28 27 27 26
31 29 26 28 31 33 34 32 29 32 32 27 26 28 28 29 31 32 32 30 29 30 30 31 31 30 29 28 27 26 25 26 28 29 31 31 30 30 30 30 30 29
28 30 30 31 31 31 34 33 31 32 31 26 24 27 29 27 29 33 35 32 31 32 33 33 34 34 33 31 29 29 28 28 29 30 31 31 30 31 32 32 33 33
24 27 29 28 27 27 29 30 28 28 27 25 25 26 28 27 27 31 34 34 34 34 36 37 37 38 38 34 32 32 31 30 31 31 31 32 32 32 33 34 34 35
21 22 23 24 24 25 27 27 27 27 27 27 27 27 27 27 28 30 33 36 37 37 39 40 39 40 41 38 36 36 35 34 35 34 34 35 34 34 34 35 35 36
23 24 24 24 25 26 27 28 29 30 30 31 31 29 28 28 29 30 31 34 37 38 41 42 41 42 43 42 40 40 40 40 40 39 38 37 36 36 36 36 37 37
27 27 27 27 28 28 29 30 30 31 32 33 33 33 32 31 31 32 33 34 35 37 40 40 41 43 43 42 40 40 41 41 40 40 39 38 37 38 39 39 38 38
29 29 28 28 29 29 30 31 32 32 33 33 35 35 36 36 36 35 36 36 36 38 39 39 41 42 39 37 37 37 38 38 38 40 41 40 40 40 40 41 40 38
29 29 28 28 28 29 29 30 31 32 33 34 35 36 36 37 38 37 38 38 38 39 39 40 43 41 35 32 34 35 35 36 38 41 42 41 41 41 41 42 41 39
28 28 28 28 27 27 28 28 29 30 31 32 33 35 35 36 36 37 37 37 38 38 38 41 45 42 34 32 33 34 34 36 38 41 41 40 42 43 42 42 41 40
28 28 28 28 27 27 27 27 28 28 29 30 31 32 33 34 35 35 34 35 36 37 38 41 42 38 35 34 35 35 36 37 39 40 40 40 41 41 41 40 41 41
29 28 29 29 29 29 29 29 29 30 30 31 31 31 32 33 34 35 34 34 34 34 37 39 37 34 35 36 36 37 37 38 39 40 39 40 40 39 39 40 41 41
30 29 29 29 29 29 30 30 31 31 32 33 33 33 33 33 33 33 34 34 34 34 36 36 34 34 36 37 37 38 38 39 40 39 39 39 39 39 40 40 40 39
32 31 30 30 30 30 31 31 31 32 33 34 34 35 36 35 32 32 35 37 36 36 37 35 33 34 36 37 38 38 39 40 40 39 39 40 40 40 41 41 40 39
34 34 33 33 33 34 34 34 34 34 34 35 35 36 36 35 33 32 35 37 37 37 38 36 35 35 36 37 38 38 39 39 38 38 40 41 41 41 41 41 40 39

ECMWFNIL_700_spd_024.txt.gz
Wind_Speed
12 11 10 9 7 5 5 4 3 2 1 2 3 4 5 5 6 7 7 7 7 7 6 5 4 3 3 2 2 2 1 1 0 0 1 2 3 4 4 5 5 5
13 13 12 11 9 7 6 6 5 4 2 1 1 2 3 4 5 6 7 8 9 9 8 8 7 6 5 4 4 3 3 2 2 2 1 0 0 1 2 3 3 4
15 14 14 12 12 11 9 9 8 7 6 4 3 2 1 1 2 3 5 6 7 8 8 9 9 9 8 8 7 6 6 5 5 4 3 3 2 2 2 2 3 3
17 16 15 14 14 13 12 11 11 11 10 8 7 5 4 3 2 1 0 1 3 4 5 6 6 7 8 8 8 8 8 8 8 7 7 6 5 5 4 3 3 3
18 17 17 16 16 16 16 14 14 14 14 12 12 11 8 7 6 5 4 3 3 2 2 3 3 4 5 5 6 7 7 7 7 8 8 8 7 7 6 6 5 5
21 19 19 19 19 18 19 18 16 16 16 16 15 14 14 11 10 9 8 7 7 6 5 5 5 5 5 5 5 6 6 7 7 7 8 8 8 8 8 8 8 8
24 23 23 23 22 22 22 21 20 18 18 19 18 17 17 16 14 13 11 11 10 10 9 8 8 8 8 8 8 8 8 7 7 7 7 8 8 9 9 9 9 9
25 24 24 24 24 24 25 25 24 22 21 22 22 20 19 19 18 16 15 14 13 13 13 12 12 11 11 11 11 11 10 9 9 9 8 9 9 10 10 11 12 11
22 24 26 27 26 24 26 28 27 26 25 24 24 23 23 22 20 19 18 18 16 15 16 16 15 15 14 14 14 14 13 12 12 11 11 12 12 13 13 14 15 15
17 20 24 27 25 22 24 27 28 29 29 27 25 25 26 25 24 22 21 21 20 19 18 18 18 17 17 16 17 16 15 14 14 14 14 15 15 17 17 17 17 18
25 26 26 26 26 26 27 28 30 32 31 28 27 27 28 27 25 24 24 24 23 22 22 21 21 20 19 18 17 18 17 16 16 16 16 17 18 19 20 20 21 21
35 36 35 34 35 37 39 38 37 36 33 29 28 30 32 29 25 25 27 27 28 27 26 25 25 24 24 22 19 18 18 17 17 17 17 18 19 20 20 21 22 23
35 36 37 37 37 39 40 38 33 30 28 27 26 30 32 28 24 26 28 28 29 29 27 28 28 27 27 27 25 22 19 17 18 19 20 20 21 21 22 21 23 24
28 30 31 32 33 34 33 31 28 26 27 28 27 27 28 25 24 26 27 28 30 29 27 29 30 29 29 28 27 26 24 21 21 22 23 25 24 24 25 25 25 26
19 21 23 24 26 27 29 29 28 27 27 26 25 25 26 26 25 24 24 26 28 28 27 29 29 30 32 31 29 28 28 28 27 25 26 29 30 29 29 29 29 30
15 17 17 19 20 22 23 24 24 24 23 22 23 23 24 25 25 25 24 25 26 26 26 26 27 29 31 31 29 29 31 34 33 30 31 33 34 33 33 32 32 33
18 17 17 18 19 19 20 20 21 21 22 23 24 24 24 25 26 27 27 27 27 26 25 25 26 28 28 27 27 29 33 36 36 34 34 36 36 36 35 34 33 33
22 21 21 22 22 22 22 23 23 24 24 25 26 27 27 28 28 29 29 29 29 29 29 29 30 30 29 27 27 29 32 34 34 34 34 35 36 36 35 35 34 33
23 23 23 24 24 24 24 25 25 26 27 27 28 29 30 30 30 31 31 30 31 32 33 34 34 33 32 31 29 29 30 31 32 34 34 35 36 36 36 35 34 34
23 23 23 24 25 26 26 26 26 27 28 29 30 30 30 31 31 31 31 30 31 32 33 35 36 35 34 33 31 30 31 30 32 35 36 36 37 36 35 33 33 35
24 24 24 24 24 25 26 26 26 27 28 29 29 29 29 29 29 29 29 29 29 30 31 33 35 34 32 31 30 30 31 31 33 36 38 38 37 36 34 33 34 36
25 26 26 26 26 26 27 27 27 26 26 27 27 27 27 27 27 28 28 28 28 28 30 32 33 32 30 29 29 30 29 30 33 36 38 38 36 35 35 36 36 37
26 27 27 27 27 27 27 27 27 27 26 26 26 27 27 27 28 28 29 30 30 30 31 32 32 30 29 28 28 28 28 30 33 35 35 36 36 36 36 37 38 38
28 28 29 29 28 28 27 27 27 26 26 26 26 26 26 27 27 28 29 31 32 33 34 34 32 31 30 29 29 29 30 32 33 34 34 35 36 37 37 38 38 38
29 30 30 30 30 30 30 29 28 27 27 27 27 27 27 28 28 29 30 31 32 32 32 33 32 31 31 30 30 31 32 33 33 33 33 34 35 37 38 38 38 37
31 33 33 33 32 32 32 32 32 32 31 31 30 31 31 31 32 33 33 32 31 30 31 31 31 32 33 33 33 33 33 33 33 33 33 33 34 35 35 36 36 36

ECMWFNIL_700_spd_027.txt.gz
Wind_Speed
10 8 7 5 2 1 0 1 1 2 4 5 6 7 9 10 12 13 13 13 13 12 11 10 9 8 7 7 6 5 4 3 2 1 1 1 1 0 1 1 3 4
10 9 8 6 4 3 3 2 1 0 1 3 3 4 6 7 9 10 11 12 13 13 13 13 13 12 11 11 10 9 7 6 5 4 4 4 3 3 2 1 0 1
11 11 10 8 7 6 6 5 4 3 2 0 1 2 2 3 5 5 6 8 9 10 11 12 12 12 13 12 12 11 10 10 9 8 7 6 6 5 5 4 3 2
11 12 12 11 10 10 9 8 7 7 6 4 2 1 2 1 1 1 2 3 4 5 6 7 8 8 9 9 10 10 10 9 9 9 8 8 8 7 7 6 5 4
14 13 14 15 13 13 12 11 10 10 9 8 6 5 5 5 4 3 2 2 1 1 1 2 3 4 4 5 5 6 6 6 7 7 7 7 8 8 8 8 8 7
16 16 16 17 16 16 14 13 13 13 12 11 10 9 8 8 8 7 7 6 5 5 4 4 4 3 2 2 3 3 4 5 5 5 5 5 6 6 7 8 8 8
18 19 20 20 19 18 16 14 14 14 14 14 14 13 12 12 12 11 11 10 9 9 8 7 7 7 6 6 5 5 5 5 6 6 5 5 6 6 7 8 8 9
22 22 22 20 19 17 15 14 14 15 15 16 17 18 17 17 17 16 15 14 13 12 11 10 10 11 10 10 9 9 9 8 8 8 7 7 7 8 8 9 9 10
23 22 21 19 18 17 16 15 16 16 17 18 19 20 20 21 21 21 20 19 17 16 15 14 14 13 13 13 13 13 12 12 11 11 11 10 10 10 9 10 11 11
22 21 20 17 16 16 15 16 18 19 20 19 20 21 24 26 25 23 23 22 21 20 20 19 18 17 16 15 15 15 15 14 13 13 13 12 12 12 11 11 12 12
20 20 18 15 14 15 17 20 24 25 25 25 25 28 30 31 29 27 25 25 25 24 23 22 22 21 19 18 16 15 15 15 13 13 13 13 13 13 13 12 13 14
22 23 22 20 21 23 25 26 28 29 30 29 29 30 30 28 25 24 23 25 27 28 27 25 25 24 22 21 19 17 16 16 14 13 13 13 13 14 15 15 15 16
19 20 20 21 23 27 29 30 30 30 29 27 26 26 23 20 20 20 20 21 22 24 25 25 25 24 22 21 19 18 19 19 18 17 16 15 15 16 17 18 18 18
13 15 17 19 21 25 28 29 28 26 24 22 22 21 19 19 21 21 20 19 18 19 21 22 23 22 20 19 18 19 21 22 21 20 20 20 20 21 22 23 22 22
8 10 11 14 17 19 21 21 21 20 19 18 18 19 20 21 21 19 18 18 18 19 19 19 20 20 19 19 18 18 20 23 23 22 21 23 24 25 27 27 26 26
9 9 9 11 12 13 14 15 16 16 16 16 17 18 19 19 18 17 17 17 18 18 18 19 20 20 19 19 18 18 20 23 25 25 23 24 26 28 29 29 29 29
13 13 13 14 13 14 14 14 15 16 16 16 16 17 17 17 17 18 18 19 19 20 20 20 21 21 22 22 21 21 23 24 26 27 27 27 28 29 30 31 31 31
17 17 17 18 17 17 18 18 19 19 19 20 20 20 20 20 20 20 20 21 22 23 23 23 24 24 24 25 25 25 25 26 27 28 29 30 31 31 31 31 32 32
19 19 19 20 20 19 20 20 20 21 21 21 22 22 22 23 24 24 24 24 25 26 26 27 27 27 27 27 27 27 27 27 27 28 30 31 32 32 31 31 33 34
20 21 21 21 21 20 21 21 21 21 21 22 22 22 22 23 24 25 26 26 27 29 30 30 30 30 29 28 27 27 27 27 27 28 30 31 31 31 32 33 35 36
21 21 21 20 20 20 20 20 20 21 21 22 22 22 22 23 24 25 25 26 27 28 30 30 30 28 27 26 25 26 27 27 26 27 28 29 29 30 32 34 36 36
22 22 21 20 19 19 19 19 20 21 21 22 23 23 23 23 24 24 25 25 26 26 28 28 28 26 25 24 24 25 26 25 24 25 26 27 28 29 32 35 36 35
22 22 22 21 20 19 19 19 20 21 22 23 23 24 24 24 24 25 25 26 27 27 27 27 26 26 26 25 26 27 26 25 24 24 24 26 28 30 32 34 35 34
23 23 23 23 22 21 21 20 20 21 22 23 24 24 25 25 25 26 26 26 26 25 25 25 24 24 24 25 25 26 26 25 25 25 25 27 29 31 33 34 34 34
25 24 24 24 24 24 23 22 22 22 23 24 25 25 26 27 28 28 29 28 27 26 25 25 25 25 25 25 24 24 25 25 26 26 27 28 31 33 35 36 35 34
27 26 26 26 26 26 26 25 25 25 25 26 27 27 28 29 30 31 31 31 30 30 29 28 28 28 28 28 27 27 26 26 27 28 28 30 32 34 36 36 36 36

ECMWFNIL_700_spd_030.txt.gz
Wind_Speed
17 12 9 7 4 3 2 1 1 3 4 5 6 6 7 8 10 12 13 13 13 13 12 12 11 10 9 8 7 6 5 5 5 4 4 4 4 4 4 4 5 5
20 15 13 11 8 6 4 2 1 1 2 4 4 5 6 6 8 9 10 12 12 13 14 14 14 14 13 12 11 11 10 9 8 8 7 7 6 5 4 3 2 2
22 18 16 14 11 9 7 5 3 2 1 1 1 2 3 4 5 6 7 8 9 10 11 11 12 13 13 13 13 13 12 12 11 11 10 10 9 7 7 5 4 3
23 20 17 16 15 12 10 9 7 5 4 3 2 1 1 2 3 4 4 5 5 5 6 7 7 9 9 10 10 10 10 10 10 10 10 10 10 10 9 8 7 6
23 21 19 18 17 15 14 12 10 9 8 6 4 3 3 3 3 3 3 3 3 3 4 3 3 3 4 4 5 6 6 6 7 7 7 8 8 8 8 8 8 7
25 24 23 20 18 17 16 14 13 12 10 9 7 5 5 4 5 5 6 6 6 6 5 5 4 4 3 2 1 0 2 2 3 4 4 4 4 4 4 5 5 5
28 27 25 21 19 19 17 15 15 13 12 10 8 7 6 6 6 6 6 7 8 9 9 8 8 8 7 7 6 6 5 4 3 2 2 2 2 1 0 1 2 2
29 29 27 23 21 20 18 18 16 14 13 11 9 8 8 8 8 7 7 9 11 12 12 12 11 11 10 10 10 10 9 9 8 7 6 5 5 5 4 4 5 6
28 29 29 28 24 21 19 19 16 15 15 13 11 9 10 11 11 11 12 13 14 15 15 14 14 14 13 13 13 12 12 11 11 10 9 9 9 9 9 8 8 8
27 31 32 30 26 24 22 21 19 16 14 11 10 11 12 13 14 16 18 18 16 16 17 17 17 17 16 15 14 14 13 13 13 12 11 11 10 11 11 10 10 10
25 31 31 26 22 22 21 19 18 15 13 12 12 12 14 16 18 20 21 20 18 17 17 18 20 20 19 17 16 16 16 15 13 12 11 11 12 12 11 11 11 12
21 22 21 17 17 20 20 19 19 18 18 18 15 14 17 19 21 21 20 18 17 16 17 17 19 21 22 21 20 18 18 18 17 15 13 12 12 13 13 12 11 12
16 14 15 15 16 20 21 20 21 21 19 17 15 16 19 21 21 20 18 17 16 16 17 17 15 16 18 20 20 20 20 20 20 19 17 16 15 15 16 16 14 14
11 11 14 15 17 19 20 20 22 22 19 18 18 20 21 22 20 18 17 17 18 18 18 16 15 14 13 14 17 20 21 21 21 20 18 17 16 15 17 18 19 19
7 8 9 10 11 14 15 17 19 20 19 19 20 20 20 20 19 18 18 19 19 19 18 17 16 15 13 13 13 16 18 19 20 20 19 17 17 16 17 18 20 22
5 5 6 6 7 8 10 12 13 14 15 16 16 16 17 18 18 19 19 19 18 17 16 17 16 15 16 16 15 15 16 16 18 19 20 21 21 21 21 21 22 23
7 7 7 7 7 8 9 10 11 12 12 13 14 14 15 16 17 17 17 17 16 16 16 16 17 17 18 18 18 18 19 19 20 21 22 24 24 25 24 25 26 27
10 10 10 10 10 11 11 12 13 13 14 15 15 16 16 17 17 17 18 18 18 18 18 18 18 19 19 19 19 20 21 22 24 25 26 27 28 28 28 28 28 28
12 12 12 12 12 13 14 15 16 16 17 17 17 18 19 19 19 20 20 20 21 21 21 21 21 22 22 22 22 22 23 25 26 27 28 29 30 31 31 31 31 31
14 14 14 14 14 15 15 16 16 17 17 18 18 19 20 21 21 22 22 23 23 24 24 24 24 25 25 26 26 26 27 28 28 29 29 29 30 31 31 31 31 30
16 16 16 16 16 17 17 17 17 17 17 17 18 19 19 20 22 22 23 24 25 26 26 25 25 25 25 25 25 26 27 28 28 28 28 28 28 29 29 29 28 27
18 18 18 18 18 18 18 18 18 18 18 18 18 18 19 20 21 22 23 24 25 25 26 25 24 24 24 24 24 25 26 27 27 26 26 27 27 27 27 27 27 26
21 21 20 19 19 19 19 19 19 19 19 19 19 19 20 21 22 23 24 24 24 24 25 25 25 25 24 25 25 26 26 26 26 26 27 27 28 28 27 26 26 27
22 22 21 21 21 21 22 22 22 22 22 21 21 21 22 23 24 24 25 25 25 25 25 25 25 25 25 25 25 25 25 25 25 25 26 26 27 28 27 27 26 28
23 22 22 22 22 23 23 24 24 23 23 23 23 23 24 24 25 26 26 27 26 26 26 26 26 26 26 26 26 26 26 25 25 25 25 26 26 26 27 27 28 29
23 24 24 25 25 25 25 25 25 25 25 25 25 26 26 26 27 27 28 29 29 28 28 28 28 28 28 29 29 29 28 28 27 27 27 27 28 28 28 29 30 31

ECMWFNIL_700_spd_033.txt.gz
Wind_Speed
16 14 14 13 11 7 4 3 1 2 4 6 8 9 10 11 12 12 11 10 9 8 7 6 5 4 4 3 2 2 2 2 2 2 2 2 2 3 3 4 4 5
20 16 17 16 14 9 6 5 4 3 3 4 6 7 8 9 10 11 12 12 11 11 10 8 7 6 6 5 5 5 5 5 5 5 4 4 3 2 1 1 1 1
22 20 20 19 17 13 9 7 6 5 4 3 4 5 6 7 8 9 9 10 10 11 10 10 10 9 8 7 7 6 6 6 6 6 6 6 6 5 4 3 3 3
26 25 24 22 21 19 12 9 8 6 5 4 3 3 3 4 4 5 6 7 7 8 9 9 9 9 9 9 9 9 8 8 7 6 6 6 6 6 6 5 5 5
30 31 30 26 23 21 15 12 11 8 7 7 5 4 3 2 2 2 2 3 4 5 6 6 7 7 7 7 8 8 8 7 7 7 6 6 5 5 5 5 5 5
33 34 33 28 24 23 18 14 13 11 10 9 7 6 5 4 3 2 1 0 2 3 5 6 6 6 7 6 6 6 6 6 6 5 4 4 3 3 3 3 3 3
34 34 31 28 27 25 20 17 16 15 14 12 10 9 8 7 7 5 4 3 2 1 3 5 6 7 8 8 8 7 7 7 6 5 5 4 4 3 2 2 2 3
33 35 30 28 31 28 23 21 20 19 18 17 15 13 12 11 9 8 8 7 4 5 6 6 6 7 8 9 9 10 10 9 9 8 8 8 7 7 6 6 6 6
29 34 32 30 33 31 25 25 24 22 21 20 18 17 15 13 12 12 12 10 7 8 9 8 9 9 10 10 11 11 11 11 11 11 10 10 10 10 9 9 9 9
23 30 33 33 34 32 28 28 27 25 23 22 22 21 18 17 17 16 14 11 9 10 11 11 11 11 12 13 13 14 14 14 13 12 12 12 12 12 11 11 11 11
20 27 32 34 34 32 30 31 30 27 25 25 26 24 21 20 19 17 16 14 13 13 14 14 13 13 15 16 17 17 16 16 16 15 15 14 14 13 13 12 12 12
20 23 28 31 32 32 31 32 30 26 24 24 25 24 22 20 19 19 19 18 16 16 17 16 15 15 15 16 18 19 19 19 18 18 18 18 17 16 15 14 14 14
18 20 23 25 26 27 28 27 25 23 23 22 22 22 22 22 22 22 22 21 20 18 16 15 15 15 15 14 15 16 18 20 21 21 20 20 20 20 19 18 17 17
15 15 18 19 20 23 25 22 20 20 22 22 21 21 23 25 25 24 23 22 22 19 15 13 14 15 15 15 15 15 16 19 22 23 22 21 21 22 22 21 20 20
13 14 17 18 19 22 22 20 20 21 22 21 22 23 25 25 24 25 25 23 21 18 14 14 16 17 16 17 16 15 15 16 19 22 22 21 22 23 23 21 20 19
14 15 17 18 19 20 21 21 21 20 19 19 20 22 22 22 21 23 24 21 18 15 14 15 16 16 16 16 16 16 15 15 16 18 20 20 21 23 23 22 21 21
14 15 16 17 17 17 18 17 15 13 13 14 14 15 15 16 17 17 17 15 14 14 14 15 15 14 15 15 16 16 17 17 17 18 19 19 20 22 23 23 24 25
15 15 15 15 14 13 12 11 10 11 11 11 11 10 11 12 13 14 15 15 15 16 16 16 16 15 15 16 17 18 19 19 20 20 20 21 21 22 23 24 25 27
15 15 16 16 15 14 13 13 12 12 11 11 11 12 12 14 15 17 18 18 18 18 18 18 18 18 18 19 19 21 22 23 23 24 25 25 26 26 27 27 28 29
15 15 16 16 16 16 15 15 15 14 14 14 14 15 16 17 18 19 20 20 20 20 20 20 20 20 21 21 22 23 25 26 27 28 29 30 30 30 30 30 30 31
17 17 18 17 17 18 18 17 17 17 17 18 18 18 19 20 21 21 22 22 22 22 21 21 21 21 22 23 24 25 27 28 28 29 29 30 31 31 31 31 30 31
21 21 20 20 19 19 19 18 18 18 19 19 20 21 21 22 23 23 23 24 24 24 23 23 23 23 23 23 24 25 26 27 27 28 28 29 29 29 30 30 30 30
24 23 22 22 21 20 20 19 19 19 19 20 21 22 22 23 24 24 24 24 25 25 25 25 25 25 25 24 25 25 25 26 26 26 27 27 28 28 29 29 29 30
25 25 24 23 22 21 21 20 21 22 22 22 23 23 23 23 24 24 24 24 25 25 26 26 26 27 27 27 27 27 27 27 27 27 27 27 27 27 27 28 28 28
27 26 26 25 24 23 23 23 23 24 24 25 25 25 25 25 25 25 25 25 25 25 25 26 26 27 28 29 30 30 30 30 30 30 30 30 29 29 28 28 28 28
30 28 27 26 25 25 25 26 27 27 28 28 28 28 28 28 28 28 28 28 27 27 27 27 27 28 28 29 30 31 31 32 32 33 33 33 33 32 32 32 32 31

ECMWFNIL_700_spd_036.txt.gz
Wind_Speed
20 17 14 12 11 8 7 7 3 1 2 3 5 8 10 12 13 14 14 14 14 13 12 11 10 9 9 8 8 7 7 6 5 4 4 4 4 5 4 4 3 3
21 18 17 18 17 13 10 9 5 2 1 2 3 6 8 10 11 12 13 14 15 15 14 14 14 14 13 13 12 11 10 8 7 5 4 3 3 3 3 3 3 3
23 22 21 20 19 14 13 12 7 5 3 3 2 3 5 7 8 10 11 12 12 13 13 12 13 13 13 13 13 13 13 11 10 9 7 6 4 3 3 3 3 2
24 25 23 19 19 18 18 16 11 7 6 5 4 3 3 4 5 7 7 8 8 9 9 9 9 9 10 10 10 11 11 11 11 10 10 9 8 6 6 5 5 4
25 25 22 20 22 23 22 20 15 11 11 9 7 6 4 3 3 4 4 4 5 5 5 5 6 6 6 6 7 7 8 8 8 9 9 9 8 8 8 8 7 7
23 22 21 22 25 26 25 22 17 13 15 13 10 9 7 6 5 4 4 3 2 2 2 2 2 2 2 2 3 3 4 4 5 5 5 5 6 6 7 7 7 7
18 21 23 24 26 28 28 26 20 16 18 17 14 12 10 9 8 7 6 5 4 3 2 2 2 2 3 3 2 2 2 2 3 3 3 3 4 4 5 5 6 6
16 21 27 28 28 30 31 29 24 19 19 21 18 14 13 13 12 11 10 9 9 8 6 6 6 6 6 6 6 6 5 5 5 5 5 5 5 5 5 6 6 7
15 18 24 28 30 33 32 30 26 22 22 24 21 18 17 15 14 14 13 13 13 11 8 8 9 9 9 9 9 9 9 9 8 8 8 8 8 8 8 8 8 8
15 17 19 24 30 34 33 31 28 25 24 25 24 22 20 18 17 17 16 16 16 14 11 11 11 12 12 12 12 12 12 12 13 12 12 12 11 11 11 11 11 11
13 15 16 20 28 33 34 32 29 26 26 27 27 25 23 21 21 21 21 20 20 18 15 14 14 14 15 15 15 15 14 14 15 16 16 17 16 15 14 14 13 13
12 13 14 16 23 28 31 33 31 28 29 30 29 28 27 25 26 26 25 24 23 21 19 18 17 17 17 18 18 17 16 15 16 18 19 20 20 18 16 15 15 15
11 12 13 14 18 24 29 32 31 29 31 30 28 29 28 26 26 26 26 26 25 23 21 19 18 17 16 17 18 18 17 15 16 19 21 23 23 21 17 17 18 19
12 12 13 15 17 21 26 29 28 27 28 27 26 29 29 27 27 26 25 25 25 24 23 21 18 16 15 15 16 17 17 16 16 17 19 22 25 25 23 21 22 23
16 15 16 17 18 20 21 23 24 24 23 23 25 28 30 31 30 27 24 23 23 26 28 24 19 16 15 16 16 17 18 18 17 18 20 21 23 25 25 24 25 26
19 18 18 18 19 20 20 20 20 20 20 22 23 25 27 30 29 24 22 22 23 25 24 19 16 15 16 17 18 18 19 19 19 19 20 21 22 23 24 24 26 26
19 19 19 19 20 21 21 20 19 19 20 21 22 22 23 26 26 23 21 20 19 18 15 12 13 15 17 18 18 17 17 17 17 18 18 19 19 20 20 22 23 24
20 20 21 20 20 21 21 20 18 19 21 22 22 22 21 22 22 20 17 16 16 15 12 11 13 15 16 17 17 17 17 17 17 17 18 18 19 19 20 21 22 23
20 21 21 20 20 20 20 19 19 20 21 21 21 21 22 21 20 18 17 17 16 15 14 14 16 17 18 18 18 18 19 19 20 20 20 21 21 22 22 23 24 25
20 22 21 20 20 20 20 19 19 20 21 21 21 21 21 20 20 19 19 18 18 18 19 19 20 20 20 20 21 22 22 23 23 24 24 24 25 25 26 27 27 28
21 22 21 21 21 21 21 21 21 21 22 23 23 22 22 21 22 22 21 21 20 20 20 20 20 21 21 22 22 23 24 25 26 26 27 28 28 29 29 30 30 31
23 23 23 23 24 24 24 24 24 24 24 25 24 24 24 23 23 23 23 22 21 21 20 20 20 21 21 22 23 24 25 26 27 28 29 29 30 31 31 32 32 32
25 25 26 26 26 25 24 24 25 25 25 25 24 24 24 24 24 24 23 23 22 22 22 22 22 22 23 23 24 25 25 26 28 29 30 30 31 32 32 32 32 32
28 28 28 29 28 27 26 26 26 26 25 25 25 25 25 25 25 24 24 24 24 23 23 23 23 24 24 25 25 26 27 27 28 29 30 30 31 31 32 32 32 32
30 31 31 31 30 29 28 28 28 28 28 27 27 27 27 26 25 24 24 25 25 25 25 25 26 26 27 27 27 28 28 29 29 30 31 32 32 32 32 32 32 32
28 30 31 31 29 29 29 30 30 30 30 30 29 28 28 27 26 26 26 26 27 27 27 28 29 29 30 29 30 30 31 31 31 32 32 33 33 33 33 33 33 33